User: anonymous   Login
Location: Unspecified
(0.0000°N, 0.0000°E)
Time: 06:49:12
(UTC+00:00)
Language:

N. Korean satellite - Orbit

View from above orbital plane
View from above orbital plane
View from above satellite
View from above satellite

Ground track
Ground track

The orbit data is extracted from the following two-line orbital elements,

1 39026U 12072A   19111.17338467  .00001371  00000-0  52458-4 0  9994
2 39026  97.2119 116.2228 0036823 311.2117  48.5950 15.27658880352664
Epoch (UTC): 21 April 2019 04:09:40
Eccentricity: 0.0036823
inclination: 97.2119°
perigee height: 457 km
apogee height: 508 km
right ascension of ascending node: 116.2228°
argument of perigee: 311.2117°
revolutions per day: 15.27658880
mean anomaly at epoch: 48.5950°
orbit number at epoch: 35266

The dashed part of the orbit path shows where the satellite is in the earth's shadow,  

DLR